GFSFLT2_925_spd_078.txt.gz
Wind_Speed
1 3 1 2 5 6 6 6 6 4 6 7 8 7 8 8 10 10 10 10 10 10 11 11 11 11 11
1 4 3 5 4 5 6 5 7 10 8 6 6 5 5 7 7 5 6 8 10 12 11 9 7 7 8
2 2 3 5 5 6 5 7 7 9 9 11 7 5 4 5 4 3 2 1 1 3 4 5 8 9 9
2 1 1 3 4 7 4 4 7 7 6 7 9 8 8 7 4 2 1 1 3 3 4 6 7 8 10
4 1 2 3 4 5 5 7 2 6 8 4 7 6 5 5 7 6 5 5 5 6 7 6 5 7 8
1 2 3 3 3 5 6 5 3 7 14 9 4 6 4 8 10 10 8 8 8 9 10 10 9 9 8
4 2 2 3 3 3 4 4 4 9 11 3 7 4 4 6 9 12 7 5 5 7 8 9 9 9 9
1 1 2 1 1 2 5 6 6 1 7 2 8 8 8 5 7 10 6 4 4 4 4 5 6 7 7
2 3 4 5 4 3 1 4 2 2 4 5 6 13 7 2 5 6 6 6 5 4 3 4 5 7 9
2 4 4 2 1 1 3 1 1 1 4 7 7 10 5 2 3 7 8 5 6 7 7 8 8 9 10
2 2 2 1 1 2 2 2 2 2 2 6 5 5 4 7 11 6 6 6 7 9 10 9 7 9 13
4 3 4 3 5 6 6 6 6 7 9 9 6 6 9 10 8 10 15 13 13 9 8 9 11 13 13
6 6 7 7 9 10 5 5 6 8 9 9 11 12 12 13 14 17 16 11 16 6 12 11 12 12 15
8 6 7 8 8 4 6 8 9 9 7 9 11 11 14 16 17 21 18 11 16 24 20 19 18 17 19
9 10 9 8 8 8 10 10 12 13 13 9 10 12 14 16 20 22 26 25 20 18 17 21 20 19 20
11 12 11 11 11 11 12 13 15 15 15 12 12 13 15 18 18 25 22 21 18 15 14 19 23 24 23
15 15 14 15 13 14 15 16 17 17 17 15 13 12 9 8 13 16 22 21 20 22 22 24 28 30 27

GFSFLT2_925_spd_084.txt.gz
Wind_Speed
5 7 4 2 2 2 2 3 3 3 1 1 3 5 6 9 8 10 11 14 17 18 7 16 15 18 21
6 5 2 1 2 1 2 3 3 5 4 5 3 5 5 5 7 6 6 8 10 13 20 20 18 17 13
6 5 3 2 5 4 3 3 0 1 1 2 4 6 6 5 5 5 5 3 4 7 6 7 7 7 7
7 6 5 6 5 6 4 2 2 1 0 1 2 2 4 4 5 4 4 3 3 1 1 2 3 4 5
6 4 5 6 5 4 3 3 1 2 2 1 1 1 2 5 6 6 3 1 1 0 1 1 1 2 4
7 7 6 5 5 3 3 2 2 1 4 2 2 3 3 4 7 8 4 1 3 3 4 4 3 4 5
9 7 7 6 5 3 3 3 2 3 3 2 1 1 3 2 6 7 8 6 3 2 3 4 5 6 7
4 5 4 4 3 3 2 1 1 1 3 0 2 1 4 2 4 6 7 6 5 5 3 2 1 3 4
3 3 2 2 3 4 4 2 2 2 2 2 2 6 0 3 2 1 2 5 5 5 4 3 1 3 6
4 4 3 3 2 3 4 3 2 1 0 3 2 5 0 4 2 3 1 1 3 3 3 3 3 6 9
4 5 4 4 3 1 1 2 4 3 1 3 2 2 2 4 4 6 5 5 9 7 7 7 6 6 7
5 6 6 5 4 3 3 4 5 5 7 6 3 2 4 5 5 4 7 11 4 3 4 2 5 4 6
8 7 6 4 6 7 7 7 6 3 4 6 7 7 8 7 8 10 11 5 12 6 6 16 12 10 11
9 7 8 9 8 7 7 6 8 8 4 5 8 10 13 14 14 21 17 10 6 13 16 14 10 10 12
10 11 11 10 10 10 9 9 11 8 9 6 8 11 14 16 20 21 20 19 15 14 14 17 15 12 13
14 13 14 12 11 12 13 14 15 14 13 11 9 9 10 12 17 22 18 14 13 12 12 17 25 22 20
15 15 14 13 13 13 14 15 17 16 15 13 11 10 4 4 8 13 17 12 12 16 18 21 28 30 24

GFSFLT2_925_spd_087.txt.gz
Wind_Speed
4 9 10 7 3 4 2 1 2 1 1 2 1 3 6 8 10 9 11 13 17 22 6 7 15 16 15
8 9 6 6 4 4 3 3 2 4 4 4 3 4 6 6 7 7 8 9 11 18 25 28 22 19 20
7 7 3 4 4 6 6 5 2 0 1 2 2 6 7 6 5 5 5 5 7 9 11 15 17 19 17
6 6 4 4 6 7 6 4 3 2 3 3 2 1 2 5 6 5 3 4 6 8 6 8 9 9 10
7 5 5 6 8 5 6 5 2 1 2 2 3 2 2 4 7 7 3 1 1 2 4 4 4 5 5
7 5 7 8 7 6 5 2 2 2 2 1 1 1 3 4 9 9 8 5 1 1 1 0 1 2 3
8 7 8 8 7 6 4 4 2 1 2 3 1 1 2 2 7 7 8 8 7 3 1 1 1 2 3
3 5 4 6 5 4 4 3 2 1 1 2 2 1 2 3 5 5 7 7 8 6 5 4 4 3 0
4 4 4 4 3 4 4 3 2 3 1 1 1 3 1 4 2 1 3 4 6 5 5 4 2 1 2
5 5 5 5 3 2 4 4 3 1 2 1 1 2 1 4 3 2 3 3 3 4 3 3 3 4 5
6 5 5 4 3 3 2 2 4 3 3 2 1 1 1 2 4 6 7 7 7 6 6 4 5 4 7
7 6 6 6 5 4 3 2 3 3 5 5 3 2 2 4 3 3 5 10 8 4 4 3 6 8 7
9 8 8 6 8 8 6 5 4 3 4 4 6 6 6 5 5 8 7 4 12 9 8 9 13 10 9
11 9 9 11 11 9 8 7 7 6 6 5 6 8 10 13 13 17 14 10 6 9 15 16 11 10 11
13 13 13 12 13 12 10 9 8 5 5 5 7 10 13 14 18 20 18 17 14 12 13 17 15 11 11
15 14 15 14 15 14 13 12 13 12 11 10 10 11 10 12 17 21 18 15 7 8 9 15 22 17 17
17 18 17 16 14 16 16 14 14 14 14 13 12 11 2 2 7 11 15 12 10 10 13 18 26 27 23

GFSFLT2_925_spd_090.txt.gz
Wind_Speed
6 9 12 9 6 3 3 2 2 1 1 2 3 3 6 7 9 10 14 9 16 13 11 7 9 11 17
6 10 9 10 8 6 4 4 4 2 2 3 5 4 5 7 6 6 8 6 11 18 29 21 12 14 12
8 10 7 10 8 7 6 6 4 3 2 2 1 4 5 6 6 6 6 7 7 10 15 23 25 22 18
8 7 6 8 9 7 7 5 5 4 3 3 3 3 4 6 6 5 3 5 8 6 8 10 12 17 19
8 6 7 6 8 7 8 6 5 3 2 2 3 3 2 4 8 6 3 3 4 6 6 6 7 8 8
7 6 7 6 6 7 6 4 2 4 1 2 2 1 2 4 9 10 10 6 5 4 4 4 5 6 6
9 8 7 8 8 7 6 4 3 2 1 3 2 2 1 4 7 7 8 9 9 8 6 4 4 4 4
6 6 6 7 7 4 5 4 3 2 1 1 2 2 1 5 5 5 6 8 9 9 8 8 7 7 5
4 4 5 5 4 5 6 5 2 2 1 1 1 1 2 4 3 4 5 5 6 6 6 5 3 3 3
5 5 5 5 4 4 6 7 4 2 3 1 2 1 1 4 4 4 4 1 1 1 2 1 1 1 3
6 5 5 4 3 3 4 4 5 3 4 2 2 2 1 2 4 7 7 6 5 4 2 4 4 3 5
6 6 6 5 5 5 3 2 3 3 4 4 2 3 1 1 3 3 4 6 6 6 5 5 3 5 7
8 7 7 6 8 8 6 4 4 4 5 5 4 5 5 4 2 5 5 2 9 8 7 9 9 10 8
9 7 8 9 10 9 7 6 6 7 7 5 5 6 6 8 9 13 10 7 4 6 13 15 14 12 11
11 10 10 9 9 10 10 8 8 3 4 5 6 8 10 11 13 15 16 17 15 15 16 16 13 11 12
15 13 13 13 12 12 13 12 12 13 12 9 8 7 8 9 14 19 17 17 12 9 11 15 17 12 13
17 16 16 15 14 15 16 15 15 15 15 12 10 9 2 2 6 10 13 11 9 11 10 14 25 25 21